Regional Weather Roundup
Issued by NWS Sioux Falls, SD

Home | Current Version | Previous Version | Text Only | Print | Product List | Glossary On
Versions: 1 2 3 4 5 6 7 8 9 10 11 12 13 14 15 16 17 18 19 20 21 22 23 24 25 26 27 28 29 30 31 32 33 34 35 36 37 38 39 40 41 42 43 44 45 46 47 48 49 50
000
ASUS43 KFSD 191910
RWRFSD

WEATHER ROUNDUP FOR SE SOUTH DAKOTA/SW MINNESOTA/NW IOWA
NATIONAL WEATHER SERVICE SIOUX FALLS SD
100 PM CST SUN FEB 19 2017

NOTE: "FAIR" INDICATES FEW OR NO CLOUDS BELOW 12,000 FEET WITH NO
SIGNIFICANT WEATHER AND OR OBSTRUCTIONS TO VISIBILITY.


SDZ038>040-050-052>070-192000-
SOUTHEAST SOUTH DAKOTA

CITY           SKY/WX    TMP DP  RH WIND       PRES   REMARKS
BROOKINGS      SUNNY     55  47  74 S18G26    29.70F
CHAMBERLAIN    PTSUNNY   64  45  50 S10       29.60F
HURON          MOSUNNY   58  46  64 S16G28    29.60F
MADISON        FAIR      55  55 100 SE16G22   29.71F
MITCHELL       MOSUNNY   58  48  69 S22G32    29.65F
SIOUX FALLS    PTSUNNY   61  51  70 S23G30    29.74F
WINNER         FAIR      64  40  41 S20       29.59F
YANKTON        CLOUDY    61  48  63 SE18      29.71F
$$

MNZ071-072-080-081-089-090-097-098-192000-
SOUTHWEST MINNESOTA

CITY           SKY/WX    TMP DP  RH WIND       PRES   REMARKS
FAIRMONT       CLOUDY    57  48  72 SE15      29.85F
JACKSON        SUNNY     57  46  67 SE13      29.83F
LUVERNE        MOSUNNY   59  50  72 S15       29.78F
MARSHALL       SUNNY     61  49  64 S21       29.76F
MONTEVIDEO     SUNNY     57  48  72 S13       29.78F
PIPESTONE      MOSUNNY   59  48  67 S18       29.75F
REDWOOD FALLS  MOSUNNY   55  45  68 SE16      29.80F
TRACY          MOSUNNY   59  50  72 S13       29.78F
WINDOM         CLOUDY    63  48  59 SE12      29.81F
WORTHINGTON    MOSUNNY   58  51  78 S15       29.81F
$$

IAZ001>003-012>014-020>022-031-032-NEZ013-014-SDZ071-192000-
NORTHWEST IOWA

CITY           SKY/WX    TMP DP  RH WIND       PRES   REMARKS
CHEROKEE       MOSUNNY   65  51  62 S18G24    29.82F
DENISON        CLOUDY    64  52  63 S21G28    29.81F
ESTHERVILLE    CLOUDY    57  51  80 S15       29.84F
LE MARS        MOSUNNY   61  52  72 S21       29.80F
SHELDON        CLOUDY    59  57  94 S15       29.79F
SIOUX CITY     MOSUNNY   64  52  64 SE14      29.81F
SPENCER        MOSUNNY   61  52  72 S14       29.83F
STORM LAKE     MOSUNNY   63  52  67 S20G26    29.83F
$$

ABBREVIATIONS USED IN REMARKS
   TC - TEMPERATURE IN CELSIUS
  WCI - WIND CHILL INDEX
   HX - HEAT INDEX
  VSB - VISIBILITY




USA.gov is the U.S. government's official web portal to all federal, state and local government web resources and services.